NOAA 16 DEB, 41508

Orbit data source: Space-Track

NOAA 16 DEB, 41508 is space debris in SSO originally from a launch on Thu, 21 Sep 2000 UTC launched from the Air Force Western Test Range (AFWTR). Debris objects in space refer to the collection of defunct objects orbiting the Earth. Examples of debris include non-operational satellites, rocket bodies, and fragments generated from explosions, collisions, or faulty payload assembly.

Loading next visibility...
Identifier
41508, 2000-055MG
Orbit
SSO
Country
Flag of USUS
Related business
Manufacturer
Unknown
Mission
Spacecraft
Bus & Motor
Unknown
Mass
Unknown
Launch date (UTC)
2000-09-21 (25 years ago)
Launch vehicle
Unknown
Launch site
Air Force Western Test Range (AFWTR)
Object type
Payload
Rocket body
Debris
Shape & HBR
Unknown shape, 0.1 m
Radar Cross Section
Small (<0.1 m²)

Expand to show TLE details & history
Last TLE update: 19 hours ago

TLE from 19 hours ago
0 NOAA 16 DEB
1 41508U 00055MG  26033.77940267  .00004616  00000-0  16840-2 0  9992
2 41508  98.8524 156.5996 0023229 312.1790  47.7420 14.33407019507387
Epoch: 2026-02-02T18:42Z
TLE epoch observation values (Epoch: 2026-02-02T18:42:20.390Z)
Latitude
-0.00009°
Longitude
103.04487°
Altitude
772.13 km
Speed
7.474 km/s
True Right ascension
10h 26m 23s
True Declination
0° 00' 00"
Sunlit
Object was in full shadow at epoch
Visualization orbit readout
Latitude
Unknown
Longitude
Unknown
Altitude
Unknown
Speed
Unknown
Apparent Right ascension
Unknown
Apparent Declination
Unknown
Sunlit
N/A
Visualization observer readout
Local Sidereal Time
15:14:32
Azimuth
Unknown
Elevation
Unknown
Doppler factor
Unknown
Orbital elements
Apogee altitude
794.135 km
Perigee altitude
760.891 km
Semi-major axis
7,155.65 km
Eccentricity
0.00232
Inclination
98.8524°
RAAN
156.5996°
Arg. of periapsis
312.179°
True anomaly
47.93939°
Mean anomaly
47.742°
Eccentric anomaly
47.84066°
Mean motion
3.58566 °/min
Orbital period
100.4 mins
BSTAR
0.001684
Loading maneuver chart data...
Computing Atmospheric mass density...
Loading historical data...
Loading historical data...
Loading historical data...
Loading historical data...
Loading historical data...
Loading historical data...
Loading historical data...

Documentation

Showing up to 5 results
|